Regional Weather Roundup
Issued by NWS Goodland, KS

Home | Current Version | Previous Version | Graphics & Text | Print | Product List | Glossary On
Versions: 1 2 3 4 5 6 7 8 9 10 11 12 13 14 15 16 17 18 19 20 21 22 23 24 25 26 27 28 29 30 31 32 33 34 35 36 37 38 39 40 41 42 43 44 45 46 47 48 49 50
000
ASUS43 KGLD 262259
RWRGLD

GOODLAND FORECAST AREA HOURLY WEATHER ROUNDUP
NATIONAL WEATHER SERVICE GOODLAND KS
400 PM MST FRI DEC 26 2014

...OFFICIAL OBSERVATIONS...

CITY           SKY/WX    TMP DP  RH WIND       PRES   REMARKS
GOODLAND KS    FLURRIES  21  17  84 N13       29.97F WCI   9
HILL CITY KS   LGT SNOW  27  23  85 N15       30.02R FOG     WCI  15
IMPERIAL NEB   LGT SNOW  21  16  81 N16       30.02S WCI   7
MCCOOK NEB     LGT SNOW  24  21  88 N12       30.02R VSB 3/4 WCI  13
AKRON CO       LGT SNOW  16  13  88 N12       29.96S FOG     WCI   3
BURLINGTON CO  CLOUDY    20  15  81 N8        29.96R HAZE
LIMON CO       CLOUDY    13   9  84 N9        29.92R
$$

...UNOFFICIAL OBSERVATIONS...

CITY           SKY/WX    TMP DP  RH WIND       PRES   REMARKS
COLBY KS       CLOUDY    23  23 100 N14G20    29.98F FOG     WCI  11
NORTON KS      LGT SNOW  25  21  86 N10       30.00S WCI  15
SHARON SPRINGS   N/A     22  20  91 NE12        N/A  WCI  11
TRIBUNE KS     CLOUDY    25  25 100 N10       29.99R VSB 1   WCI  15
KIT CARSON CO    N/A     20  15  81 MISG        N/A
$$



USA.gov is the U.S. government's official web portal to all federal, state and local government web resources and services.